Retour au catalogue

TITAN 3C TRANSTAGE DEB

LostHEO
NORAD 5515·DEBRIS·🇺🇸 United States

Lancé Dec 21, 1965 depuis Cape Canaveral Space Force Station

Loading…

Prochains Passages (prochaines 24 heures)

TLE

PériméSource: Space-Track

Époque: Aug 1, 2025, 19:22 UTC

1  5515U 65108M   25213.80721609 -.00000039  00000-0  00000+0 0  9994
2  5515  27.9057  51.9069 6616372 147.4308 353.0230  2.65898456210783

Suivez TITAN 3C TRANSTAGE DEB en temps réel avec AllMySat

Download on the App Store